User: anonymous
Location: Caltech
(34.1382°N, 118.1253°W)
Time: 20:15:17
(UTC-07:00)
Language:

MaSat-1 - Orbit

View from above orbital plane
View from above orbital plane
View from above satellite
View from above satellite

Ground track
Ground track

The orbit data is extracted from the following two-line orbital elements,

1 38081U 12006E   14109.77407641  .00107341  53055-5  14803-2 0  9627
2 38081 069.4530 143.7528 0415039 079.3804 038.3331 14.95978998114693
Epoch (UTC): 19 April 2014 18:34:40
Eccentricity: 0.0415039
inclination: 69.4530°
perigee height: 290 km
apogee height: 868 km
right ascension of ascending node: 143.7528°
argument of perigee: 79.3804°
revolutions per day: 14.95978998
mean anomaly at epoch: 38.3331°
orbit number at epoch: 11469

The dashed part of the orbit path shows where the satellite is in the earth's shadow,  

DLR